Regional Weather Roundup
Issued by NWS Albany, NY

Home | Current Version | Previous Version | Graphics & Text | Print | Product List | Glossary Off
Versions: 1 2 3 4 5 6 7 8 9 10 11 12 13 14 15 16 17 18 19 20 21 22 23 24 25 26 27

000
ASUS41 KALY 231310
RWRALY

NEW YORK STATE HOURLY WEATHER ROUNDUP
NATIONAL WEATHER SERVICE ALBANY NY
900 AM EDT FRI JUN 23 2017

NOTE: "FAIR" INDICATES FEW OR NO CLOUDS BELOW 12,000 FEET WITH NO
SIGNIFICANT WEATHER AND/OR NO OBSTRUCTIONS TO VISIBILITY.

NYZ032-033-038>043-046>054-057>066-NYZ062>081-082-084-231400-
EAST


CITY           SKY/WX    TMP DP  RH WIND       PRES   REMARKS
ALBANY         CLOUDY    75  66  73 S9        29.76F
GLENS FALLS    NOT AVBL
POUGHKEEPSIE   CLOUDY    79  69  71 S8        29.78F
NEWBURGH       PTSUNNY   79  72  78 W6        29.82F
MONTGOMERY     CLOUDY    79  71  76 SW10      29.79F
ISLIP          CLOUDY    79  73  82 S9        29.82F
NEW YORK CITY  CLOUDY    81  73  76 S12       29.80F
CENTRAL PARK   CLOUDY    80  72  76 VRB5      29.84F
$$

NYZ005>009-017-018-044>046-055-056-231400-
CENTRAL


CITY           SKY/WX    TMP DP  RH WIND       PRES   REMARKS
FULTON         CLOUDY    72  67  84 NW3       29.72S
SYRACUSE       CLOUDY    73  69  87 E6        29.71F
ROME           PTSUNNY   75  68  78 CALM      29.73F
ELMIRA         NOT AVBL
BINGHAMTON     MOSUNNY   72  64  78 SW10      29.80F
MONTICELLO     CLOUDY    73  68  83 W3        29.84F
$$

NYZ026>034-041>043-087-231400-
NORTH


CITY           SKY/WX    TMP DP  RH WIND       PRES   REMARKS
WATERTOWN      LGT RAIN  68  68 100 SW7       29.70F
FORT DRUM      NOT AVBL
OGDENSBURG     RAIN      69  67  95 SW9       29.69R
MASSENA        LGT RAIN  69  69 100 S8        29.68S
SARANAC LAKE   CLOUDY    65  65 100 SW6       29.74F
PLATTSBURGH    LGT RAIN  64  62  93 S3        29.71F
$$

NYZ001>004-010>016-019>021-085-231400-
WEST


CITY           SKY/WX    TMP DP  RH WIND       PRES   REMARKS
NIAGARA FALLS  CLOUDY    77  66  68 SW17      29.66F
BUFFALO        PTSUNNY   76  66  71 SW16      29.68F
DUNKIRK        CLOUDY    75  67  76 SW10      29.69F
JAMESTOWN      CLOUDY    70  63  78 SW8       29.76S
WELLSVILLE     CLOUDY    72  64  76 S13G26    29.80F
ROCHESTER      PTSUNNY   79  68  69 SW10      29.69F
PENN YAN       CLOUDY    75  66  73 SW3       29.74F
$$

             KEY
       WCI = WIND CHILL INDEX
       VSB = VISIBILITY
       HX  = HEAT INDEX
$$




USA.gov is the U.S. government's official web portal to all federal, state and local government web resources and services.